Regional Weather Roundup
Issued by NWS

Home | Current Version | Previous Version | Graphics & Text | Print | Product List | Glossary On
Versions: 1 2 3 4 5 6 7 8 9 10 11 12 13 14 15 16 17 18 19 20 21 22 23 24 25 26 27 28 29 30 31 32 33 34 35 36 37 38 39 40 41 42 43 44 45 46 47 48 49 50
239
ASUS45 KSLC 222210
RWRUT

UTAH REGIONAL WEATHER ROUNDUP
NATIONAL WEATHER SERVICE SALT LAKE CITY UT
400 PM MDT SAT APR 22 2017

UTZ001>011-023>025-222300-

NORTHERN UTAH

CITY           SKY/WX    TMP DP  RH WIND       PRES   REMARKS
BRIGHAM CITY   MOSUNNY   58  28  32 S7        30.13F
HILL AFB       SUNNY     57  29  33 CALM      30.11F
LOGAN          SUNNY     60  34  37 N7        30.11F
OGDEN          SUNNY     59  29  31 MISG      30.11F
SALT LAKE CITY PTSUNNY   64  27  24 SE12G18   30.10F
TOOELE VALLEY  MOSUNNY   55  34  44 N8        30.11F
WENDOVER       NOT AVBL
HEBER CITY     SUNNY     63  21  20 E8        30.10F
WEST JORDAN    MOSUNNY   64  40  40 SE13G20   30.10F

$$

UTZ011>015-024>027-222300-

CENTRAL/NORTHEAST UTAH

CITY           SKY/WX    TMP DP  RH WIND       PRES   REMARKS
PROVO AIRPORT  MOSUNNY   59  28  30 W7        30.13F
MOAB/CANYONLAN SUNNY     66  15  14 VRB5      30.10F
DELTA          SUNNY     59  19  21 CALM      30.12F
PRICE          SUNNY     58  16  19 VRB6      30.17F
ROOSEVELT      SUNNY     59  19  21 E6        30.20F
VERNAL         SUNNY     58  23  26 SW9       30.18F

$$

UTZ013>016-019>022-027-222300-

SOUTHERN UTAH

CITY           SKY/WX    TMP DP  RH WIND       PRES   REMARKS
BRYCE CANYON   SUNNY     58  19  22 SE15G22   30.18F
CEDAR CITY     SUNNY     64  26  23 CALM      30.10F
MILFORD        SUNNY     63  24  22 VRB5      30.10F
ST GEORGE      CLEAR     77  23  13 VRB7      30.00F
HANKSVILLE     SUNNY     64  16  15 NE9       30.15F
BLANDING       SUNNY     63  17  17 SW5       30.20F

$$

REGIONAL REPORTS     COLORADO/ARIZONA

CITY           SKY/WX    TMP DP  RH WIND       PRES   REMARKS
CRAIG, CO      MOSUNNY   57  20  23 CALM      30.17F
GRAND JUNCTION SUNNY     65  14  14 MISG      30.11F
RIFLE, CO      SUNNY     62  16  16 NE9       30.14F
MONTROSE, CO   SUNNY     60  14  16 VRB6      30.16F
CORTEZ, CO     SUNNY     64  15  15 MISG      30.13F
COLORADO CITY    N/A     73  23  15 N3        30.09F
PAGE, AZ       SUNNY     68  12  11 N10       30.10F
GRAND CANYON   SUNNY     68  24  19 NE7G18    30.15F
KINGMAN, AZ    SUNNY     83  25  12 N6        29.97F
FLAGSTAFF, AZ  MOSUNNY   68  20  16 VRB3      30.14F

$$

REGIONAL REPORTS    NEVADA/IDAHO/WYOMING

CITY           SKY/WX    TMP DP  RH WIND       PRES   REMARKS
LAS VEGAS, NV  MOSUNNY   81  16   9 NE6       29.95F
ELY, NY        MOSUNNY   62  29  28 SE8       30.08F
ELKO, NV       CLOUDY    66  31  27 VRB7      30.00F
POCATELLO, ID  MOSUNNY   61  29  29 S20       30.08F
BURLEY, ID     MOSUNNY   61  25  25 VRB3      30.02F
FORT BRIDGER,    N/A     55  20  25 CALM      30.20S
EVANSTON, WY   SUNNY     54  24  31 MISG      30.17F
ROCK SPRINGS,  SUNNY     55  14  19 S10G21    30.18F
KEMMERER, WY     N/A     50  18  27 SE9       30.19F

$$




USA.gov is the U.S. government's official web portal to all federal, state and local government web resources and services.